Time[GMT],salinity[psu](1m),sigma_t[kg/m^3](1m),conductivity[msiemens/cm](1m),temperature[C](1m)
2019-08-26 20:00,34.394,21.426,56.984,29.55
2019-08-26 21:00,34.386,21.421,56.966,29.55
2019-08-26 22:00,34.392,21.441,56.929,29.50
2019-08-26 23:00,34.393,21.456,56.883,29.46
2019-08-27 00:00,34.379,21.448,56.855,29.45
2019-08-27 01:00,34.373,21.441,56.856,29.46
2019-08-27 02:00,34.368,21.442,56.833,29.45
2019-08-27 03:00,34.359,21.443,56.795,29.42
2019-08-27 04:00,34.359,21.455,56.761,29.39
2019-08-27 05:00,34.360,21.450,56.778,29.41
2019-08-27 06:00,34.363,21.455,56.772,29.40
2019-08-27 07:00,34.366,21.470,56.740,29.36
2019-08-27 08:00,34.364,21.470,56.730,29.36
2019-08-27 09:00,34.373,21.487,56.711,29.32
2019-08-27 10:00,34.380,21.481,56.757,29.36
2019-08-27 11:00,34.379,21.481,56.754,29.36
2019-08-27 12:00,34.382,21.484,56.755,29.35
2019-08-27 13:00,34.383,21.474,56.790,29.39
2019-08-27 14:00,34.383,21.455,56.849,29.44
2019-08-27 15:00,34.384,21.440,56.899,29.49
2019-08-27 16:00,34.387,21.447,56.891,29.48
2019-08-27 17:00,34.395,21.415,57.019,29.59
2019-08-27 18:00,34.503,21.494,57.184,29.59
2019-08-27 19:00,34.498,21.484,57.198,29.61
2019-08-27 20:00,34.465,21.461,57.145,29.61
2019-08-27 21:00,34.421,21.459,56.985,29.52
2019-08-27 22:00,34.399,21.438,56.963,29.53
2019-08-27 23:00,34.399,21.432,56.983,29.55
2019-08-28 00:00,34.393,21.429,56.969,29.54
2019-08-28 01:00,34.390,21.429,56.957,29.53
2019-08-28 02:00,34.396,21.445,56.933,29.50
2019-08-28 03:00,34.407,21.457,56.936,29.49
2019-08-28 04:00,34.411,21.466,56.925,29.47
2019-08-28 05:00,34.414,21.470,56.919,29.47
2019-08-28 06:00,34.399,21.465,56.880,29.45
2019-08-28 07:00,34.405,21.473,56.875,29.44
2019-08-28 08:00,34.407,21.474,56.883,29.44
2019-08-28 09:00,34.407,21.480,56.864,29.42
2019-08-28 10:00,34.400,21.482,56.831,29.40
2019-08-28 11:00,34.396,21.491,56.786,29.36
2019-08-28 12:00,34.404,21.491,56.818,29.38
2019-08-28 13:00,34.403,21.482,56.841,29.41
2019-08-28 14:00,34.403,21.443,56.965,29.52
2019-08-28 15:00,34.404,21.437,56.987,29.54
2019-08-28 16:00,34.407,21.439,56.992,29.54
2019-08-28 17:00,34.410,21.427,57.040,29.58
2019-08-28 18:00,34.409,21.438,57.003,29.55
2019-08-28 19:00,34.411,21.445,56.985,29.53
2019-08-28 20:00,34.412,21.458,56.951,29.50
2019-08-28 21:00,34.412,21.460,56.945,29.49
2019-08-28 22:00,34.411,21.465,56.926,29.48
2019-08-28 23:00,34.417,21.470,56.936,29.48
2019-08-29 00:00,34.429,21.488,56.922,29.45
2019-08-29 01:00,34.429,21.490,56.913,29.44
2019-08-29 02:00,34.430,21.497,56.899,29.42
2019-08-29 03:00,34.454,21.514,56.938,29.43
2019-08-29 04:00,34.460,21.523,56.932,29.41
2019-08-29 05:00,34.451,21.515,56.921,29.42
2019-08-29 06:00,34.458,21.523,56.927,29.41
2019-08-29 07:00,34.500,21.541,57.027,29.45
2019-08-29 08:00,34.495,21.531,57.042,29.47
2019-08-29 09:00,34.502,21.537,57.048,29.46
2019-08-29 10:00,34.462,21.537,56.894,29.37
2019-08-29 11:00,34.465,21.534,56.918,29.39
2019-08-29 12:00,34.469,21.530,56.942,29.41
2019-08-29 13:00,34.428,21.512,56.842,29.37
2019-08-29 14:00,34.448,21.456,57.095,29.58
2019-08-29 15:00,34.516,21.482,57.272,29.66
2019-08-29 16:00,34.527,21.489,57.293,29.66
2019-08-29 17:00,34.561,21.531,57.294,29.61
2019-08-29 18:00,34.595,21.577,57.277,29.55
2019-08-29 19:00,34.491,21.444,57.297,29.72
2019-08-29 20:00,34.546,21.527,57.249,29.59
2019-08-29 21:00,34.474,21.503,57.048,29.50
2019-08-29 22:00,34.425,21.456,57.007,29.53
2019-08-29 23:00,34.441,21.465,57.039,29.54
2019-08-30 00:00,34.498,21.490,57.179,29.59
2019-08-30 01:00,34.530,21.524,57.194,29.57
2019-08-30 02:00,34.553,21.537,57.242,29.58
2019-08-30 03:00,34.543,21.528,57.232,29.58
2019-08-30 04:00,34.560,21.544,57.245,29.57
2019-08-30 05:00,34.557,21.551,57.215,29.55
2019-08-30 06:00,34.532,21.549,57.123,29.49
2019-08-30 07:00,34.504,21.560,56.984,29.40
2019-08-30 08:00,34.539,21.593,57.015,29.38
2019-08-30 09:00,34.531,21.582,57.019,29.40
2019-08-30 10:00,34.550,21.609,57.005,29.36
2019-08-30 11:00,34.528,21.574,57.030,29.41
2019-08-30 12:00,34.555,21.582,57.111,29.45
2019-08-30 13:00,34.581,21.583,57.205,29.50
2019-08-30 14:00,34.580,21.559,57.275,29.57
2019-08-30 15:00,34.560,21.543,57.251,29.58
2019-08-30 16:00,34.542,21.502,57.311,29.66
2019-08-30 17:00,34.536,21.532,57.190,29.55
2019-08-30 18:00,34.539,21.536,57.193,29.55
2019-08-30 19:00,34.541,21.545,57.172,29.53
2019-08-30 20:00,34.636,21.646,57.217,29.44
2019-08-30 21:00,34.614,21.642,57.146,29.40
2019-08-30 22:00,34.597,21.631,57.114,29.40
2019-08-30 23:00,34.570,21.523,57.352,29.66
2019-08-31 00:00,34.581,21.504,57.448,29.73
2019-08-31 01:00,34.579,21.519,57.396,29.69
2019-08-31 02:00,34.570,21.517,57.366,29.67
2019-08-31 03:00,34.563,21.523,57.325,29.64
2019-08-31 04:00,34.562,21.530,57.298,29.62
2019-08-31 05:00,34.562,21.536,57.278,29.60
2019-08-31 06:00,34.569,21.554,57.250,29.56
2019-08-31 07:00,34.539,21.572,57.079,29.44
2019-08-31 08:00,34.601,21.636,57.113,29.39
2019-08-31 09:00,34.572,21.621,57.054,29.37
2019-08-31 10:00,34.586,21.597,57.178,29.47
2019-08-31 11:00,34.569,21.590,57.136,29.45
2019-08-31 12:00,34.566,21.597,57.103,29.43
2019-08-31 13:00,34.565,21.609,57.063,29.39
2019-08-31 14:00,34.512,21.441,57.386,29.77
2019-08-31 15:00,34.519,21.411,57.506,29.87
2019-08-31 16:00,34.536,21.415,57.559,29.90
2019-08-31 17:00,34.522,21.369,57.644,30.00
2019-08-31 18:00,34.512,21.402,57.507,29.89
2019-08-31 19:00,34.524,21.440,57.433,29.80
2019-08-31 20:00,34.527,21.450,57.415,29.78
2019-08-31 21:00,34.541,21.442,57.491,29.83
2019-08-31 22:00,34.560,21.477,57.458,29.77
2019-08-31 23:00,34.541,21.468,57.410,29.75
2019-09-01 00:00,34.542,21.445,57.486,29.82
2019-09-01 01:00,34.537,21.453,57.445,29.79
2019-09-01 02:00,34.544,21.468,57.420,29.76
2019-09-01 03:00,34.533,21.488,57.317,29.68
2019-09-01 04:00,34.521,21.482,57.289,29.67
2019-09-01 05:00,34.533,21.491,57.309,29.67
2019-09-01 06:00,34.529,21.501,57.261,29.63
2019-09-01 07:00,34.523,21.513,57.200,29.58
2019-09-01 08:00,34.541,21.530,57.220,29.57
2019-09-01 09:00,34.601,21.640,57.103,29.38
2019-09-01 10:00,34.613,21.656,57.097,29.36
2019-09-01 11:00,34.600,21.617,57.172,29.45
2019-09-01 12:00,34.615,21.660,57.093,29.35
2019-09-01 13:00,34.612,21.638,57.149,29.41
2019-09-01 14:00,34.562,21.545,57.248,29.57
2019-09-01 15:00,34.558,21.472,57.464,29.78
2019-09-01 16:00,34.563,21.432,57.608,29.91
2019-09-01 17:00,34.561,21.409,57.668,29.97
2019-09-01 18:00,34.551,21.404,57.648,29.97
2019-09-01 19:00,34.545,21.452,57.476,29.81
2019-09-01 20:00,34.549,21.456,57.479,29.81
2019-09-01 21:00,34.558,21.471,57.467,29.78
2019-09-01 22:00,34.586,21.578,57.237,29.53
2019-09-01 23:00,34.605,21.617,57.191,29.46
2019-09-02 00:00,34.601,21.606,57.208,29.48
2019-09-02 01:00,34.560,21.503,57.376,29.69
2019-09-02 02:00,34.554,21.495,57.379,29.71
2019-09-02 03:00,34.547,21.507,57.314,29.65
2019-09-02 04:00,34.554,21.527,57.276,29.61
2019-09-02 05:00,34.527,21.497,57.269,29.64
2019-09-02 06:00,34.532,21.501,57.272,29.64
2019-09-02 07:00,34.533,21.506,57.261,29.62
2019-09-02 08:00,34.533,21.512,57.242,29.61
2019-09-02 09:00,34.549,21.538,57.223,29.57
2019-09-02 10:00,34.617,21.644,57.150,29.40
2019-09-02 11:00,34.627,21.657,57.148,29.39
2019-09-02 12:00,34.582,21.585,57.203,29.50
2019-09-02 13:00,34.601,21.584,57.278,29.55
2019-09-02 14:00,34.545,21.498,57.333,29.67
2019-09-02 15:00,34.540,21.469,57.402,29.75
2019-09-02 16:00,34.542,21.452,57.464,29.80
2019-09-02 17:00,34.549,21.428,57.565,29.89
2019-09-02 18:00,34.545,21.399,57.644,29.97
2019-09-02 19:00,34.558,21.381,57.747,30.05
2019-09-02 20:00,34.559,21.410,57.661,29.97
2019-09-02 21:00,34.564,21.397,57.718,30.01
2019-09-02 22:00,34.568,21.403,57.717,30.01
2019-09-02 23:00,34.582,21.481,57.528,29.81
2019-09-03 00:00,34.615,21.574,57.363,29.61
2019-09-03 01:00,34.601,21.553,57.375,29.64
2019-09-03 02:00,34.595,21.534,57.412,29.68
2019-09-03 03:00,34.577,21.502,57.444,29.74
2019-09-03 04:00,34.569,21.502,57.411,29.72
2019-09-03 05:00,34.564,21.506,57.378,29.69
2019-09-03 06:00,34.571,21.525,57.350,29.65
2019-09-03 07:00,34.576,21.528,57.357,29.66
2019-09-03 08:00,34.575,21.538,57.322,29.62
2019-09-03 09:00,34.580,21.552,57.299,29.59
2019-09-03 10:00,34.568,21.500,57.415,29.72
2019-09-03 11:00,34.577,21.523,57.377,29.67
2019-09-03 12:00,34.568,21.508,57.390,29.70
2019-09-03 13:00,34.560,21.473,57.470,29.78
2019-09-03 14:00,34.558,21.470,57.469,29.79
2019-09-03 15:00,34.556,21.455,57.508,29.82
2019-09-03 16:00,34.544,21.407,57.610,29.94
2019-09-03 17:00,34.539,21.397,57.623,29.96
2019-09-03 18:00,34.546,21.404,57.628,29.95
2019-09-03 19:00,34.547,21.402,57.639,29.96
2019-09-03 20:00,34.544,21.410,57.603,29.93
2019-09-03 21:00,34.548,21.429,57.559,29.88
2019-09-03 22:00,34.551,21.440,57.535,29.86
2019-09-03 23:00,34.556,21.450,57.521,29.84
2019-09-04 00:00,34.555,21.460,57.490,29.81
2019-09-04 01:00,34.552,21.441,57.537,29.86
2019-09-04 02:00,34.550,21.439,57.535,29.86
2019-09-04 03:00,34.550,21.444,57.520,29.85
2019-09-04 04:00,34.551,21.443,57.525,29.85
2019-09-04 05:00,34.553,21.451,57.509,29.83
2019-09-04 06:00,34.552,21.478,57.422,29.75
2019-09-04 07:00,34.554,21.510,57.332,29.66
2019-09-04 08:00,34.554,21.518,57.303,29.63
2019-09-04 09:00,34.559,21.527,57.296,29.62
2019-09-04 10:00,34.558,21.527,57.292,29.62
2019-09-04 11:00,34.556,21.516,57.316,29.64
2019-09-04 12:00,34.562,21.516,57.342,29.66
2019-09-04 13:00,34.573,21.521,57.368,29.67
2019-09-04 14:00,34.562,21.511,57.359,29.67
2019-09-04 15:00,34.563,21.505,57.381,29.70
2019-09-04 16:00,34.574,21.501,57.435,29.73
2019-09-04 17:00,34.575,21.511,57.407,29.70
2019-09-04 18:00,34.572,21.503,57.421,29.72
2019-09-04 19:00,34.577,21.494,57.465,29.76
2019-09-04 20:00,34.606,21.507,57.538,29.78
2019-09-04 21:00,34.613,21.528,57.499,29.74
2019-09-04 22:00,34.616,21.546,57.454,29.69
2019-09-04 23:00,34.603,21.540,57.423,29.68
2019-09-05 00:00,34.589,21.493,57.516,29.79
2019-09-05 01:00,34.596,21.527,57.437,29.70
2019-09-05 02:00,34.583,21.529,57.379,29.67
2019-09-05 03:00,34.584,21.535,57.367,29.65
2019-09-05 04:00,34.595,21.544,57.380,29.65
2019-09-05 05:00,34.597,21.549,57.373,29.64
2019-09-05 06:00,34.597,21.548,57.375,29.64
2019-09-05 07:00,34.599,21.551,57.372,29.64
2019-09-05 08:00,34.605,21.566,57.347,29.60
2019-09-05 09:00,34.609,21.579,57.324,29.58
2019-09-05 10:00,34.622,21.584,57.359,29.59
2019-09-05 11:00,34.636,21.597,57.371,29.58
2019-09-05 12:00,34.692,21.642,57.443,29.57
2019-09-05 13:00,34.662,21.621,57.396,29.57
2019-09-05 14:00,34.639,21.576,57.449,29.65
2019-09-05 15:00,34.645,21.553,57.544,29.74
2019-09-05 16:00,34.612,21.524,57.507,29.75
2019-09-05 17:00,34.607,21.536,57.452,29.70
2019-09-05 18:00,34.601,21.524,57.465,29.72
2019-09-05 19:00,34.602,21.519,57.484,29.74
2019-09-05 20:00,34.593,21.520,57.446,29.72
2019-09-05 21:00,34.576,21.493,57.466,29.76
2019-09-05 22:00,34.571,21.494,57.445,29.74
2019-09-05 23:00,34.570,21.497,57.432,29.73
2019-09-06 00:00,34.575,21.487,57.483,29.78
2019-09-06 01:00,34.640,21.517,57.638,29.83
2019-09-06 02:00,34.564,21.486,57.443,29.75
2019-09-06 03:00,34.555,21.489,57.402,29.73
2019-09-06 04:00,34.557,21.478,57.441,29.76
2019-09-06 05:00,34.554,21.479,57.429,29.75
2019-09-06 06:00,34.427,21.403,57.181,29.70
2019-09-06 07:00,34.523,21.486,57.288,29.66
2019-09-06 08:00,34.550,21.511,57.312,29.65
2019-09-06 09:00,34.555,21.506,57.345,29.67
2019-09-06 10:00,34.576,21.529,57.356,29.65
2019-09-06 11:00,34.599,21.547,57.384,29.65
2019-09-06 12:00,34.602,21.552,57.383,29.64
2019-09-06 13:00,34.579,21.510,57.426,29.72
2019-09-06 14:00,34.656,21.585,57.484,29.66
2019-09-06 15:00,34.670,21.569,57.586,29.74
2019-09-06 16:00,34.633,21.494,57.683,29.88
2019-09-06 17:00,34.634,21.483,57.720,29.92
2019-09-06 18:00,34.606,21.478,57.628,29.87
2019-09-06 19:00,34.602,21.448,57.703,29.95
2019-09-06 20:00,34.596,21.454,57.663,29.92
2019-09-06 21:00,34.613,21.494,57.604,29.84
2019-09-06 22:00,34.652,21.505,57.717,29.89
2019-09-06 23:00,34.625,21.500,57.629,29.84
2019-09-07 00:00,34.623,21.510,57.594,29.81
2019-09-07 01:00,34.609,21.497,57.581,29.82
2019-09-07 02:00,34.808,21.751,57.544,29.51
2019-09-07 03:00,34.634,21.542,57.537,29.74
2019-09-07 04:00,34.606,21.511,57.525,29.77
2019-09-07 05:00,34.622,21.525,57.542,29.77
2019-09-07 06:00,34.637,21.524,57.601,29.80
2019-09-07 07:00,34.661,21.530,57.677,29.84
2019-09-07 08:00,34.679,21.556,57.663,29.80
2019-09-07 09:00,34.671,21.569,57.593,29.75
2019-09-07 10:00,34.669,21.575,57.566,29.72
2019-09-07 11:00,34.679,21.584,57.575,29.72
2019-09-07 12:00,34.678,21.584,57.573,29.72
2019-09-07 13:00,34.686,21.581,57.610,29.74
2019-09-07 14:00,34.684,21.546,57.712,29.84
2019-09-07 15:00,34.669,21.472,57.887,30.02
2019-09-07 16:00,34.694,21.428,58.116,30.21
2019-09-07 17:00,34.640,21.447,57.854,30.03
2019-09-07 18:00,34.585,21.470,57.573,29.85
2019-09-07 19:00,34.582,21.449,57.628,29.90
2019-09-07 20:00,34.590,21.460,57.623,29.89
2019-09-07 21:00,34.611,21.498,57.583,29.82
2019-09-07 22:00,34.613,21.511,57.553,29.79
2019-09-07 23:00,34.634,21.522,57.601,29.80
2019-09-08 00:00,34.630,21.513,57.609,29.82
2019-09-08 01:00,34.624,21.510,57.598,29.82
2019-09-08 02:00,34.632,21.519,57.598,29.80
2019-09-08 03:00,34.630,21.524,57.575,29.79
2019-09-08 04:00,34.638,21.527,57.598,29.80
2019-09-08 05:00,34.637,21.540,57.554,29.76
2019-09-08 06:00,34.636,21.538,57.554,29.76
2019-09-08 07:00,34.632,21.540,57.536,29.75
2019-09-08 08:00,34.663,21.574,57.548,29.71
2019-09-08 09:00,34.697,21.650,57.436,29.56
2019-09-08 10:00,34.768,21.720,57.491,29.51
2019-09-08 11:00,34.774,21.757,57.394,29.41
2019-09-08 12:00,34.754,21.718,57.444,29.49
2019-09-08 13:00,34.661,21.539,57.650,29.81
2019-09-08 14:00,34.649,21.481,57.780,29.95
2019-09-08 15:00,34.640,21.390,58.029,30.20
2019-09-08 16:00,34.658,21.425,57.988,30.14
2019-09-08 17:00,34.611,21.271,58.288,30.48
2019-09-08 18:00,34.627,21.382,58.007,30.20
2019-09-08 19:00,34.630,21.407,57.941,30.13
2019-09-08 20:00,34.626,21.419,57.886,30.08
2019-09-08 21:00,34.631,21.467,57.758,29.96
2019-09-08 22:00,34.639,21.481,57.743,29.93
2019-09-08 23:00,34.629,21.497,57.654,29.86
2019-09-09 00:00,34.652,21.521,57.671,29.84
2019-09-09 01:00,34.637,21.528,57.590,29.79
2019-09-09 02:00,34.644,21.522,57.637,29.82
2019-09-09 03:00,34.646,21.532,57.612,29.80
2019-09-09 04:00,34.643,21.542,57.571,29.76
2019-09-09 05:00,34.635,21.557,57.494,29.70
2019-09-09 06:00,34.648,21.566,57.514,29.70
2019-09-09 07:00,34.644,21.559,57.521,29.71
2019-09-09 08:00,34.644,21.562,57.511,29.71
2019-09-09 09:00,34.650,21.569,57.511,29.70
2019-09-09 10:00,34.650,21.582,57.473,29.66
2019-09-09 11:00,34.660,21.605,57.436,29.61
2019-09-09 12:00,34.662,21.595,57.475,29.65
2019-09-09 13:00,34.667,21.585,57.525,29.69
2019-09-09 14:00,34.673,21.561,57.627,29.77
2019-09-09 15:00,34.696,21.536,57.791,29.90
2019-09-09 16:00,34.770,21.599,57.875,29.87
2019-09-09 17:00,34.750,21.472,58.193,30.20
2019-09-09 18:00,34.777,21.511,58.180,30.15
2019-09-09 19:00,34.768,21.543,58.041,30.03
2019-09-09 20:00,34.740,21.547,57.924,29.96
2019-09-09 21:00,34.699,21.452,58.064,30.15
2019-09-09 22:00,34.693,21.445,58.061,30.16
2019-09-09 23:00,34.748,21.612,57.750,29.79
2019-09-10 00:00,34.764,21.642,57.718,29.73
2019-09-10 01:00,34.736,21.595,57.759,29.81
2019-09-10 02:00,34.727,21.523,57.946,30.00
2019-09-10 03:00,34.690,21.476,57.955,30.06
2019-09-10 04:00,34.673,21.465,57.921,30.05
2019-09-10 05:00,34.663,21.471,57.867,30.02
2019-09-10 06:00,34.662,21.492,57.798,29.95
2019-09-10 07:00,34.659,21.484,57.810,29.97
2019-09-10 08:00,34.655,21.504,57.736,29.90
2019-09-10 09:00,34.661,21.513,57.730,29.89
2019-09-10 10:00,34.686,21.525,57.787,29.91
2019-09-10 11:00,34.736,21.559,57.870,29.92
2019-09-10 12:00,34.672,21.528,57.726,29.87
2019-09-10 13:00,34.656,21.508,57.728,29.89
2019-09-10 14:00,34.654,21.453,57.889,30.05
2019-09-10 15:00,34.667,21.423,58.034,30.17
2019-09-10 16:00,34.662,21.446,57.941,30.09
2019-09-10 17:00,34.665,21.372,58.179,30.31
2019-09-10 18:00,34.661,21.359,58.205,30.34
2019-09-10 19:00,34.670,21.371,58.204,30.32
2019-09-10 20:00,34.685,21.381,58.229,30.33
2019-09-10 21:00,34.686,21.401,58.171,30.27
2019-09-10 22:00,34.684,21.439,58.046,30.15
2019-09-10 23:00,34.683,21.444,58.027,30.14
2019-09-11 00:00,34.690,21.465,57.987,30.09
2019-09-11 01:00,34.691,21.483,57.935,30.04
2019-09-11 02:00,34.696,21.496,57.914,30.01
2019-09-11 03:00,34.693,21.507,57.871,29.98
2019-09-11 04:00,34.700,21.517,57.865,29.96
2019-09-11 05:00,34.692,21.507,57.866,29.97
2019-09-11 06:00,34.692,21.514,57.841,29.95
2019-09-11 07:00,34.691,21.513,57.842,29.95
2019-09-11 08:00,34.687,21.512,57.829,29.95
2019-09-11 09:00,34.694,21.526,57.815,29.92
2019-09-11 10:00,34.701,21.539,57.803,29.90
2019-09-11 11:00,34.773,21.662,57.691,29.70
2019-09-11 12:00,34.780,21.667,57.701,29.70
2019-09-11 13:00,34.792,21.667,57.748,29.72
2019-09-11 14:00,34.803,21.651,57.840,29.80
2019-09-11 15:00,34.711,21.488,57.999,30.07
2019-09-11 16:00,34.691,21.440,58.070,30.17
2019-09-11 17:00,34.700,21.422,58.159,30.24
2019-09-11 18:00,34.690,21.407,58.169,30.26
2019-09-11 19:00,34.684,21.414,58.122,30.23
2019-09-11 20:00,34.680,21.422,58.086,30.20
2019-09-11 21:00,34.677,21.417,58.088,30.20
2019-09-11 22:00,34.673,21.430,58.033,30.16
2019-09-11 23:00,34.672,21.441,57.995,30.12
2019-09-12 00:00,34.676,21.450,57.982,30.10
2019-09-12 01:00,34.684,21.459,57.986,30.10
2019-09-12 02:00,34.692,21.473,57.973,30.07
2019-09-12 03:00,34.686,21.467,57.966,30.08
2019-09-12 04:00,34.672,21.488,57.850,29.99
2019-09-12 05:00,34.668,21.492,57.820,29.96
2019-09-12 06:00,34.667,21.499,57.794,29.94
2019-09-12 07:00,34.673,21.501,57.812,29.95
2019-09-12 08:00,34.682,21.492,57.876,30.00
2019-09-12 09:00,34.682,21.489,57.880,30.00
2019-09-12 10:00,34.681,21.493,57.866,29.99
2019-09-12 11:00,34.682,21.508,57.824,29.95
2019-09-12 12:00,34.684,21.518,57.802,29.92
2019-09-12 13:00,34.720,21.530,57.898,29.97
2019-09-12 14:00,34.753,21.526,58.040,30.05
2019-09-12 15:00,34.760,21.485,58.194,30.19
2019-09-12 16:00,34.695,21.407,58.186,30.27
2019-09-12 17:00,34.686,21.353,58.323,30.41
2019-09-12 18:00,34.685,21.341,58.351,30.44
2019-09-12 19:00,34.680,21.344,58.324,30.42
2019-09-12 20:00,34.676,21.342,58.316,30.42
2019-09-12 21:00,34.673,21.341,58.305,30.41
2019-09-12 22:00,34.678,21.359,58.271,30.38
2019-09-12 23:00,34.684,21.377,58.237,30.34
2019-09-13 00:00,34.690,21.382,58.244,30.33
2019-09-13 01:00,34.692,21.389,58.233,30.32
2019-09-13 02:00,34.693,21.400,58.202,30.29
2019-09-13 03:00,34.655,21.393,58.075,30.22
2019-09-13 04:00,34.682,21.420,58.098,30.21
2019-09-13 05:00,34.681,21.418,58.097,30.21
2019-09-13 06:00,34.676,21.430,58.046,30.17
2019-09-13 07:00,34.663,21.435,57.981,30.12
2019-09-13 08:00,34.663,21.435,57.978,30.12
2019-09-13 09:00,34.660,21.437,57.958,30.11
2019-09-13 10:00,34.655,21.443,57.926,30.08
2019-09-13 11:00,34.664,21.458,57.910,30.05
2019-09-13 12:00,34.661,21.451,57.922,30.07
2019-09-13 13:00,34.660,21.441,57.949,30.10
2019-09-13 14:00,34.658,21.408,58.042,30.19
2019-09-13 15:00,34.660,21.404,58.064,30.20
2019-09-13 16:00,34.658,21.373,58.154,30.29
2019-09-13 17:00,34.659,21.373,58.154,30.29
2019-09-13 18:00,34.663,21.372,58.175,30.31
2019-09-13 19:00,34.671,21.375,58.193,30.31
2019-09-13 20:00,34.669,21.375,58.186,30.31
2019-09-13 21:00,34.666,21.375,58.177,30.30
2019-09-13 22:00,34.677,21.382,58.195,30.30
2019-09-13 23:00,34.677,21.394,58.160,30.27
2019-09-14 00:00,34.679,21.398,58.155,30.26
2019-09-14 01:00,34.679,21.400,58.148,30.26
2019-09-14 02:00,34.678,21.398,58.150,30.26
2019-09-14 03:00,34.678,21.403,58.137,30.25
2019-09-14 04:00,34.679,21.411,58.116,30.23
2019-09-14 05:00,34.671,21.411,58.081,30.21
2019-09-14 06:00,34.676,21.417,58.083,30.20
2019-09-14 07:00,34.676,21.422,58.067,30.19
2019-09-14 08:00,34.675,21.425,58.055,30.18
2019-09-14 09:00,34.673,21.425,58.049,30.17
2019-09-14 10:00,34.671,21.422,58.047,30.17
2019-09-14 11:00,34.683,21.428,58.076,30.18
2019-09-14 12:00,34.684,21.427,58.084,30.19
2019-09-14 13:00,34.691,21.421,58.129,30.22
2019-09-14 14:00,34.676,21.413,58.099,30.21
2019-09-14 15:00,34.696,21.411,58.178,30.26
2019-09-14 16:00,34.704,21.404,58.233,30.30
2019-09-14 17:00,34.705,21.399,58.249,30.32
2019-09-14 18:00,34.700,21.380,58.291,30.36
2019-09-14 19:00,34.709,21.379,58.325,30.38
2019-09-14 20:00,34.705,21.383,58.299,30.36
2019-09-14 21:00,34.703,21.382,58.295,30.36
2019-09-14 22:00,34.702,21.389,58.269,30.34
2019-09-14 23:00,34.697,21.400,58.217,30.30
2019-09-15 00:00,34.693,21.421,58.138,30.23
2019-09-15 01:00,34.677,21.430,58.048,30.17
2019-09-15 02:00,34.661,21.436,57.967,30.11
2019-09-15 03:00,34.633,21.422,57.904,30.09
2019-09-15 04:00,34.626,21.420,57.887,30.08
2019-09-15 05:00,34.630,21.425,57.884,30.08
2019-09-15 06:00,34.630,21.423,57.890,30.08
2019-09-15 07:00,34.628,21.422,57.887,30.08
2019-09-15 08:00,34.631,21.428,57.879,30.07
2019-09-15 09:00,34.633,21.432,57.873,30.06
2019-09-15 10:00,34.637,21.445,57.846,30.03
2019-09-15 11:00,34.641,21.456,57.829,30.01
2019-09-15 12:00,34.637,21.448,57.839,30.02
2019-09-15 13:00,34.639,21.441,57.869,30.05
2019-09-15 14:00,34.639,21.432,57.896,30.08
2019-09-15 15:00,34.640,21.430,57.907,30.08
2019-09-15 16:00,34.645,21.419,57.959,30.13
2019-09-15 17:00,34.646,21.410,57.991,30.16
2019-09-15 18:00,34.646,21.411,57.988,30.15
2019-09-15 19:00,34.646,21.411,57.989,30.15
2019-09-15 20:00,34.647,21.406,58.009,30.17
2019-09-15 21:00,34.645,21.395,58.034,30.20
2019-09-15 22:00,34.646,21.397,58.033,30.20
2019-09-15 23:00,34.648,21.403,58.018,30.18
2019-09-16 00:00,34.647,21.412,57.986,30.15
2019-09-16 01:00,34.639,21.401,57.992,30.17
2019-09-16 02:00,34.647,21.406,58.006,30.17
2019-09-16 03:00,34.654,21.408,58.031,30.18
2019-09-16 04:00,34.664,21.418,58.035,30.17
2019-09-16 05:00,34.670,21.423,58.039,30.17
2019-09-16 06:00,34.672,21.427,58.038,30.16
2019-09-16 07:00,34.676,21.432,58.036,30.16
2019-09-16 08:00,34.680,21.436,58.042,30.16
2019-09-16 09:00,34.679,21.435,58.042,30.16
2019-09-16 10:00,34.663,21.426,58.004,30.14
2019-09-16 11:00,34.655,21.430,57.963,30.12
2019-09-16 12:00,34.638,21.421,57.927,30.11
2019-09-16 13:00,34.634,21.414,57.934,30.12
2019-09-16 14:00,34.638,21.410,57.960,30.14
2019-09-16 15:00,34.647,21.404,58.012,30.18
2019-09-16 16:00,34.644,21.389,58.049,30.21
2019-09-16 17:00,34.642,21.389,58.042,30.21
2019-09-16 18:00,34.631,21.377,58.034,30.22
2019-09-16 19:00,34.636,21.410,57.955,30.14
2019-09-16 20:00,34.639,21.410,57.965,30.14
2019-09-16 21:00,34.647,21.416,57.978,30.14
2019-09-16 22:00,34.653,21.421,57.985,30.14
2019-09-16 23:00,34.655,21.423,57.985,30.14
2019-09-17 00:00,34.653,21.419,57.988,30.14
2019-09-17 01:00,34.657,21.425,57.985,30.14
2019-09-17 02:00,34.659,21.429,57.980,30.13
2019-09-17 03:00,34.658,21.438,57.952,30.10
2019-09-17 04:00,34.654,21.433,57.948,30.10
2019-09-17 05:00,34.652,21.431,57.951,30.11
2019-09-17 06:00,34.698,21.453,58.055,30.14
2019-09-17 07:00,34.742,21.503,58.068,30.09
2019-09-17 08:00,34.760,21.520,58.086,30.09
2019-09-17 09:00,34.743,21.501,58.078,30.10
2019-09-17 10:00,34.663,21.490,57.808,29.96
2019-09-17 11:00,34.664,21.496,57.793,29.94
2019-09-17 12:00,34.661,21.493,57.792,29.95
2019-09-17 13:00,34.660,21.483,57.817,29.97
2019-09-17 14:00,34.661,21.470,57.865,30.01
2019-09-17 15:00,34.660,21.467,57.869,30.02
2019-09-17 16:00,34.660,21.471,57.854,30.01
2019-09-17 17:00,34.662,21.483,57.825,29.98
2019-09-17 18:00,34.659,21.493,57.783,29.94
2019-09-17 19:00,34.656,21.498,57.757,29.92
2019-09-17 20:00,34.649,21.499,57.727,29.90
2019-09-17 21:00,34.645,21.500,57.707,29.89
2019-09-17 22:00,34.642,21.488,57.733,29.92